H1 CPF 2 NER 2020 12 14 9 349 01 glonass127 H2 1106403 9127 37869 2020 12 14 0 0 0 2020 12 17 23 45 0 900 1 1 0 0 0 1 H9 10 0 59197 0.00000 0 15071335.778 20088217.894 -4493301.101 10 0 59197 900.00000 0 15392501.406 20310782.964 -1310740.219 10 0 59197 1800.00000 0 15488077.056 20198704.681 1897263.542 10 0 59197 2700.00000 0 15315094.518 19786419.131 5068484.587 10 0 59197 3600.00000 0 14839792.044 19117927.234 8141491.423 10 0 59197 4500.00000 0 14039236.005 18244798.243 11056828.632 10 0 59197 5400.00000 0 12902497.653 17223879.098 13758154.835 10 0 59197 6300.00000 0 11431336.477 16114806.414 16193315.749 10 0 59197 7200.00000 0 9640362.464 14977425.486 18315332.976 10 0 59197 8100.00000 0 7556670.985 13869223.692 20083291.261 10 0 59197 9000.00000 0 5218965.473 12842884.448 21463109.051 10 0 59197 9900.00000 0 2676203.871 11944062.328 22428179.376 10 0 59197 10800.00000 0 -14176.247 11209470.487 22959870.487 10 0 59197 11700.00000 0 -2788382.142 10665358.560 23047877.990 10 0 59197 12600.00000 0 -5578654.199 10326443.237 22690422.543 10 0 59197 13500.00000 0 -8315821.811 10195335.315 21894289.617 10 0 59197 14400.00000 0 -10931923.798 10262486.971 20674710.170 10 0 59197 15300.00000 0 -13362787.270 10506661.978 19055083.528 10 0 59197 16200.00000 0 -15550460.245 10895910.258 17066546.312 10 0 59197 17100.00000 0 -17445398.660 11389007.532 14747393.704 10 0 59197 18000.00000 0 -19008317.690 11937301.464 12142362.144 10 0 59197 18900.00000 0 -20211630.447 12486888.525 9301785.092 10 0 59197 19800.00000 0 -21040413.561 12981031.474 6280636.129 10 0 59197 20700.00000 0 -21492858.094 13362716.563 3137476.397 10 0 59197 21600.00000 0 -21580185.565 13577242.843 -66674.427 10 0 59197 22500.00000 0 -21326031.023 13574733.664 -3269522.263 10 0 59197 23400.00000 0 -20765317.693 13312462.903 -6408714.671 10 0 59197 24300.00000 0 -19942669.490 12756895.469 -9423064.569 10 0 59197 25200.00000 0 -18910427.719 11885353.211 -12253756.621 10 0 59197 26100.00000 0 -17726355.603 10687232.870 -14845511.229 10 0 59197 27000.00000 0 -16451128.064 9164721.621 -17147681.721 10 0 59197 27900.00000 0 -15145713.779 7332977.096 -19115261.624 10 0 59197 28800.00000 0 -13868761.430 5219761.902 -20709780.589 10 0 59197 29700.00000 0 -12674102.047 2864546.014 -21900070.115 10 0 59197 30600.00000 0 -11608474.334 317113.399 -22662882.969 10 0 59197 31500.00000 0 -10709570.271 -2364269.247 -22983353.396 10 0 59197 32400.00000 0 -10004484.250 -5115045.084 -22855288.768 10 0 59197 33300.00000 0 -9508631.495 -7866828.922 -22281286.937 10 0 59197 34200.00000 0 -9225181.104 -10550034.561 -21272677.323 10 0 59197 35100.00000 0 -9145026.741 -13096557.165 -19849287.515 10 0 59197 36000.00000 0 -9247294.773 -15442398.011 -18039040.825 10 0 59197 36900.00000 0 -9500366.567 -17530121.551 -15877393.776 10 0 59197 37800.00000 0 -9863369.602 -19311042.293 -13406625.782 10 0 59197 38700.00000 0 -10288072.197 -20747050.780 -10674996.192 10 0 59197 39600.00000 0 -10721099.572 -21812003.533 -7735786.657 10 0 59197 40500.00000 0 -11106375.702 -22492620.713 -4646248.820 10 0 59197 41400.00000 0 -11387686.180 -22788856.254 -1466479.063 10 0 59197 42300.00000 0 -11511252.807 -22713727.652 1741756.652 10 0 59197 43200.00000 0 -11428210.670 -22292615.372 4916224.289 10 0 59197 44100.00000 0 -11096883.209 -21562063.992 7995425.958 10 0 59197 45000.00000 0 -10484759.935 -20568137.683 10919783.447 10 0 59197 45900.00000 0 -9570094.342 -19364400.860 13632778.818 10 0 59197 46800.00000 0 -8343055.868 -18009609.703 16082031.010 10 0 59197 47700.00000 0 -6806388.499 -16565211.590 18220289.084 10 0 59197 48600.00000 0 -4975549.111 -15092756.644 20006324.680 10 0 59197 49500.00000 0 -2878319.920 -13651328.448 21405708.501 10 0 59197 50400.00000 0 -553910.876 -12295099.633 22391457.678 10 0 59197 51300.00000 0 1948411.726 -11071112.389 22944543.382 10 0 59197 52200.00000 0 4571115.147 -10017374.448 23054250.300 10 0 59197 53100.00000 0 7250536.493 -9161348.160 22718381.937 10 0 59197 54000.00000 0 9919279.474 -8518894.230 21943308.124 10 0 59197 54900.00000 0 12508775.103 -8093713.354 20743853.464 10 0 59197 55800.00000 0 14951902.801 -7877308.912 19143027.889 10 0 59197 56700.00000 0 17185565.636 -7849472.726 17171603.013 10 0 59197 57600.00000 0 19153114.635 -7979274.612 14867540.488 10 0 59197 58500.00000 0 20806522.473 -8226515.653 12275281.261 10 0 59197 59400.00000 0 22108216.456 -8543585.745 9444907.273 10 0 59197 60300.00000 0 23032493.991 -8877648.758 6431189.734 10 0 59197 61200.00000 0 23566460.317 -9173064.360 3292540.819 10 0 59197 62100.00000 0 23710447.763 -9373944.864 89887.924 10 0 59197 63000.00000 0 23477897.244 -9426738.924 -3114508.303 10 0 59197 63900.00000 0 22894705.142 -9282731.871 -6258269.014 10 0 59197 64800.00000 0 21998061.600 -8900355.252 -9280121.104 10 0 59197 65700.00000 0 20834828.006 -8247205.459 -12121105.096 10 0 59197 66600.00000 0 19459521.486 -7301683.343 -14725741.826 10 0 59197 67500.00000 0 17931991.449 -6054182.453 -17043133.550 10 0 59197 68400.00000 0 16314886.690 -4507772.720 -19027976.182 10 0 59197 69300.00000 0 14671020.955 -2678348.053 -20641461.203 10 0 59197 70200.00000 0 13060749.300 -594229.317 -21852048.187 10 0 59197 71100.00000 0 11539467.188 1704762.341 -22636091.725 10 0 59197 72000.00000 0 10155338.965 4168723.915 -22978309.653 10 0 59197 72900.00000 0 8947352.270 6739521.668 -22872083.068 10 0 59197 73800.00000 0 7943780.700 9352997.356 -22319582.232 10 0 59197 74700.00000 0 7161119.325 11941436.586 -21331716.186 10 0 59197 75600.00000 0 6603537.027 14436195.358 -19927907.713 10 0 59197 76500.00000 0 6262867.302 16770374.193 -18135698.879 10 0 59197 77400.00000 0 6119135.971 18881427.329 -15990195.995 10 0 59197 78300.00000 0 6141601.179 20713597.641 -13533366.083 10 0 59197 79200.00000 0 6290259.254 22220075.612 -10813199.921 10 0 59197 80100.00000 0 6517750.248 23364792.706 -7882759.469 10 0 59197 81000.00000 0 6771580.290 24123775.420 -4799129.614 10 0 59197 81900.00000 0 6996564.757 24486005.155 -1622295.896 10 0 59197 82800.00000 0 7137387.512 24453750.139 1586028.792 10 0 59197 83700.00000 0 7141167.063 24042358.054 4763604.996 10 0 59197 84600.00000 0 6959920.924 23279520.613 7848871.319 10 0 59197 85500.00000 0 6552824.404 22204043.291 10782129.466 10 0 59198 0.00000 0 5888169.294 20864173.740 13506687.336 10 0 59198 900.00000 0 4944940.504 19315560.094 15969939.379 10 0 59198 1800.00000 0 3713946.683 17618925.416 18124363.938 10 0 59198 2700.00000 0 2198456.101 15837555.214 19928421.122 10 0 59198 3600.00000 0 414313.781 14034701.892 21347335.145 10 0 59198 4500.00000 0 -1610466.463 12271013.149 22353748.168 10 0 59198 5400.00000 0 -3836618.194 10602089.356 22928234.854 10 0 59198 6300.00000 0 -6215010.199 9076269.523 23059669.150 10 0 59198 7200.00000 0 -8688450.194 7732735.913 22745437.157 10 0 59198 8100.00000 0 -11193832.006 6600014.360 21991492.348 10 0 59198 9000.00000 0 -13664539.906 5694931.348 20812251.746 10 0 59198 9900.00000 0 -16033012.992 5022070.579 19230334.161 10 0 59198 10800.00000 0 -18233365.795 4573751.564 17276143.988 10 0 59198 11700.00000 0 -20203958.333 4330531.618 14987306.696 10 0 59198 12600.00000 0 -21889810.085 4262211.259 12407964.740 10 0 59198 13500.00000 0 -23244758.054 4329302.107 9587945.289 10 0 59198 14400.00000 0 -24233268.743 4484896.959 6581813.794 10 0 59198 15300.00000 0 -24831827.370 4676864.490 3447830.055 10 0 59198 16200.00000 0 -25029844.718 4850276.754 246825.847 10 0 59198 17100.00000 0 -24830041.676 4949967.137 -2958974.810 10 0 59198 18000.00000 0 -24248293.269 4923110.010 -6107169.670 10 0 59198 18900.00000 0 -23312936.826 4721711.669 -9136402.400 10 0 59198 19800.00000 0 -22063571.757 4304905.081 -11987571.916 10 0 59198 20700.00000 0 -20549400.398 3640948.867 -14605001.742 10 0 59198 21600.00000 0 -18827179.301 2708843.043 -16937544.949 10 0 59198 22500.00000 0 -16958867.324 1499490.259 -18939601.332 10 0 59198 23400.00000 0 -15009070.238 16350.704 -20572025.217 10 0 59198 24300.00000 0 -13042390.415 -1724439.475 -21802904.765 10 0 59198 25200.00000 0 -11120794.330 -3694493.222 -22608196.363 10 0 59198 26100.00000 0 -9301109.806 -5854124.594 -22972200.883 10 0 59198 27000.00000 0 -7632759.201 -8153788.497 -22887872.100 10 0 59198 27900.00000 0 -6155824.337 -10535947.967 -22356951.185 10 0 59198 28800.00000 0 -4899524.523 -12937290.282 -21389924.920 10 0 59198 29700.00000 0 -3881171.014 -15291198.421 -20005809.077 10 0 59198 30600.00000 0 -3105640.506 -17530373.548 -18231762.027 10 0 59198 31500.00000 0 -2565387.988 -19589497.804 -16102537.253 10 0 59198 32400.00000 0 -2240995.940 -21407825.345 -13659786.692 10 0 59198 33300.00000 0 -2102234.033 -22931592.866 -10951229.840 10 0 59198 34200.00000 0 -2109581.749 -24116148.800 -8029706.320 10 0 59198 35100.00000 0 -2216146.891 -24927712.799 -4952131.726 10 0 59198 36000.00000 0 -2369896.415 -25344693.072 -1778378.374 10 0 59198 36900.00000 0 -2516103.306 -25358508.115 1429896.138 10 0 59198 37800.00000 0 -2599904.624 -24973880.575 4610449.003 10 0 59198 38700.00000 0 -2568861.833 -24208593.221 7701657.235 10 0 59198 39600.00000 0 -2375415.137 -23092719.507 10643704.251 10 0 59198 40500.00000 0 -1979128.682 -21667362.937 13379725.555 10 0 59198 41400.00000 0 -1348632.789 -19982959.451 15856892.408 10 0 59198 42300.00000 0 -463182.583 -18097214.657 18027413.869 10 0 59198 43200.00000 0 686231.483 -16072762.148 19849439.663 10 0 59198 44100.00000 0 2096267.021 -13974639.864 21287848.406 10 0 59198 45000.00000 0 3751132.444 -11867688.345 22314907.904 10 0 59198 45900.00000 0 5623013.466 -9813977.244 22910796.643 10 0 59198 46800.00000 0 7673006.527 -7870364.873 23063977.871 10 0 59198 47700.00000 0 9852521.880 -6086289.951 22771420.035 10 0 59198 48600.00000 0 12105100.195 -4501885.134 22038659.724 10 0 59198 49500.00000 0 14368569.790 -3146488.910 20879705.616 10 0 59198 50400.00000 0 16577457.539 -2037616.564 19316784.371 10 0 59198 51300.00000 0 18665555.920 -1180432.379 17379931.910 10 0 59198 52200.00000 0 20568541.796 -567745.068 15106436.011 10 0 59198 53100.00000 0 22226539.509 -180527.242 12540138.871 10 0 59198 54000.00000 0 23586522.499 11061.936 9730610.859 10 0 59198 54900.00000 0 24604453.303 46192.593 6732209.346 10 0 59198 55800.00000 0 25247071.752 -28520.245 3603039.189 10 0 59198 56700.00000 0 25493255.095 -161222.772 403833.741 10 0 59198 57600.00000 0 25334891.078 -297257.553 -2803222.557 10 0 59198 58500.00000 0 24777225.057 -381724.602 -5955707.067 10 0 59198 59400.00000 0 23838664.286 -362059.146 -8992183.175 10 0 59198 60300.00000 0 22550045.523 -190515.340 -11853410.973 10 0 59198 61200.00000 0 20953395.134 173551.350 -14483519.202 10 0 59198 62100.00000 0 19100232.794 761702.307 -16831113.979 10 0 59198 63000.00000 0 17049489.660 1594821.155 -18850300.859 10 0 59198 63900.00000 0 14865128.796 2681976.547 -20501598.560 10 0 59198 64800.00000 0 12613568.493 4019792.947 -21752725.031 10 0 59198 65700.00000 0 10361017.732 5592358.152 -22579239.319 10 0 59198 66600.00000 0 8170836.815 7371672.987 -22965025.850 10 0 59198 67500.00000 0 6101034.963 9318625.306 -22902611.229 10 0 59198 68400.00000 0 4202010.517 11384447.753 -22393307.305 10 0 59198 69300.00000 0 2514628.874 13512597.847 -21447177.962 10 0 59198 70200.00000 0 1068718.345 15640980.916 -20082830.912 10 0 59198 71100.00000 0 -117954.006 17704421.776 -18327039.381 10 0 59198 72000.00000 0 -1040185.182 19637280.454 -16214202.182 10 0 59198 72900.00000 0 -1705298.950 21376101.393 -13785653.969 10 0 59198 73800.00000 0 -2132572.758 22862184.423 -11088840.448 10 0 59198 74700.00000 0 -2352155.958 24043969.345 -8176376.131 10 0 59198 75600.00000 0 -2403528.065 24879134.403 -5105004.360 10 0 59198 76500.00000 0 -2333564.973 25336321.369 -1934481.128 10 0 59198 77400.00000 0 -2194297.260 25396416.137 1273594.405 10 0 59198 78300.00000 0 -2040457.263 25053332.836 4456979.182 10 0 59198 79200.00000 0 -1926919.810 24314270.553 7553991.630 10 0 59198 80100.00000 0 -1906145.288 23199433.927 10504699.676 10 0 59198 81000.00000 0 -2025732.888 21741231.251 13252068.944 10 0 59198 81900.00000 0 -2326186.563 19982985.106 15743049.905 10 0 59198 82800.00000 0 -2838986.783 17977210.415 17929584.291 10 0 59198 83700.00000 0 -3585047.995 15783532.093 19769513.128 10 0 59198 84600.00000 0 -4573625.530 13466328.552 21227370.820 10 0 59198 85500.00000 0 -5801716.988 11092198.098 22275051.886 10 0 59199 0.00000 0 -7253982.915 8727351.721 22892339.352 10 0 59199 900.00000 0 -8903190.903 6435038.376 23067286.125 10 0 59199 1800.00000 0 -10711164.668 4273107.043 22796442.948 10 0 59199 2700.00000 0 -12630201.945 2291805.002 22084929.015 10 0 59199 3600.00000 0 -14604902.996 531900.477 20946343.668 10 0 59199 4500.00000 0 -16574337.050 -976793.057 19402519.943 10 0 59199 5400.00000 0 -18474458.844 -2216431.172 17483123.308 10 0 59199 6300.00000 0 -20240677.168 -3181649.497 15225101.415 10 0 59199 7200.00000 0 -21810470.251 -3879549.918 12671993.351 10 0 59199 8100.00000 0 -23125940.142 -4329161.921 9873109.510 10 0 59199 9000.00000 0 -24136199.875 -4560400.659 6882595.781 10 0 59199 9900.00000 0 -24799493.036 -4612564.326 3758398.539 10 0 59199 10800.00000 0 -25084955.801 -4532433.118 561149.149 10 0 59199 11700.00000 0 -24973945.577 -4372049.257 -2647011.050 10 0 59199 12600.00000 0 -24460878.125 -4186271.682 -5803642.422 10 0 59199 13500.00000 0 -23553535.421 -4030209.313 -8847231.317 10 0 59199 14400.00000 0 -22272828.844 -3956642.657 -11718402.014 10 0 59199 15300.00000 0 -20652025.463 -4013544.687 -14361091.209 10 0 59199 16200.00000 0 -18735468.356 -4241808.214 -16723660.436 10 0 59199 17100.00000 0 -16576843.663 -4673278.516 -18759922.955 10 0 59199 18000.00000 0 -14237066.877 -5329177.075 -20430063.294 10 0 59199 18900.00000 0 -11781877.337 -6218985.569 -21701429.999 10 0 59199 19800.00000 0 -9279242.464 -7339839.466 -22549184.947 10 0 59199 20700.00000 0 -6796681.643 -8676458.479 -22956795.626 10 0 59199 21600.00000 0 -4398622.830 -10201617.987 -22916360.353 10 0 59199 22500.00000 0 -2143903.419 -11877142.133 -22428759.967 10 0 59199 23400.00000 0 -83520.586 -13655376.733 -21503633.288 10 0 59199 24300.00000 0 1741274.812 -15481079.567 -20159177.415 10 0 59199 25200.00000 0 3300461.628 -17293647.737 -18421777.582 10 0 59199 26100.00000 0 4576248.272 -19029587.353 -16325474.892 10 0 59199 27000.00000 0 5563549.123 -20625120.713 -13911283.555 10 0 59199 27900.00000 0 6269920.147 -22018820.508 -11226372.294 10 0 59199 28800.00000 0 6714959.327 -23154159.661 -8323127.353 10 0 59199 29700.00000 0 6929200.392 -23981869.490 -5258116.756 10 0 59199 30600.00000 0 6952549.597 -24462007.414 -2090977.267 10 0 59199 31500.00000 0 6832334.341 -24565648.089 1116753.101 10 0 59199 32400.00000 0 6621048.389 -24276128.244 4302833.517 10 0 59199 33300.00000 0 6373890.695 -23589794.549 7405526.026 10 0 59199 34200.00000 0 6146202.712 -22516224.912 10364785.005 10 0 59199 35100.00000 0 5990912.714 -21077915.683 13123407.847 10 0 59199 36000.00000 0 5956094.506 -19309449.321 15628125.572 10 0 59199 36900.00000 0 6082742.463 -17256178.367 17830613.613 10 0 59199 37800.00000 0 6402855.334 -14972481.092 19688405.002 10 0 59199 38700.00000 0 6937907.983 -12519661.186 21165690.312 10 0 59199 39600.00000 0 7697774.056 -9963577.956 22233990.835 10 0 59199 40500.00000 0 8680143.975 -7372103.836 22872693.895 10 0 59199 41400.00000 0 9870462.460 -4812512.553 23069441.521 10 0 59199 42300.00000 0 11242388.701 -2348903.870 22820365.969 10 0 59199 43200.00000 0 12758761.235 -39769.074 22130168.079 10 0 59199 44100.00000 0 14373029.125 2064204.273 21012036.701 10 0 59199 45000.00000 0 16031092.070 3921999.215 19487409.936 10 0 59199 45900.00000 0 17673475.245 5503731.931 17585581.356 10 0 59199 46800.00000 0 19237750.637 6791649.958 15343156.899 10 0 59199 47700.00000 0 20661105.915 7780624.677 12803370.813 10 0 59199 48600.00000 0 21882955.079 8478117.143 10015271.608 10 0 59199 49500.00000 0 22847482.505 8903617.893 7032791.605 10 0 59199 50400.00000 0 23506013.728 9087583.089 3913716.412 10 0 59199 51300.00000 0 23819112.651 9069910.655 718572.959 10 0 59199 52200.00000 0 23758315.430 8898019.713 -2490543.096 10 0 59199 53100.00000 0 23307425.840 8624613.853 -5651177.771 10 0 59199 54000.00000 0 22463315.012 8305222.845 -8701742.973 10 0 59199 54900.00000 0 21236189.103 7995627.490 -11582729.669 10 0 59199 55800.00000 0 19649311.051 7749277.910 -14237884.803 10 0 59199 56700.00000 0 17738185.930 7614816.462 -16615327.384 10 0 59199 57600.00000 0 15549242.463 7633812.349 -18668580.157 10 0 59199 58500.00000 0 13138065.166 7838806.216 -20357494.953 10 0 59199 59400.00000 0 10567250.970 8251749.785 -21649052.151 10 0 59199 60300.00000 0 7903980.403 8882908.653 -22518017.419 10 0 59199 61200.00000 0 5217405.846 9730276.252 -22947441.994 10 0 59199 62100.00000 0 2575967.028 10779524.939 -22928996.282 10 0 59199 63000.00000 0 44746.950 12004496.884 -22463130.134 10 0 59199 63900.00000 0 -2317020.438 13368214.066 -21559056.936 10 0 59199 64800.00000 0 -4458186.374 14824364.352 -20234562.375 10 0 59199 65700.00000 0 -6337574.042 16319200.178 -18515642.453 10 0 59199 66600.00000 0 -7925437.875 17793768.686 -16435978.901 10 0 59199 67500.00000 0 -9204435.991 19186378.138 -14036263.448 10 0 59199 68400.00000 0 -10170077.273 20435195.617 -11363385.467 10 0 59199 69300.00000 0 -10830627.066 21480865.590 -8469500.320 10 0 59199 70200.00000 0 -11206478.595 22269038.531 -5410997.922 10 0 59199 71100.00000 0 -11329019.824 22752703.008 -2247392.910 10 0 59199 72000.00000 0 -11239046.527 22894223.401 959840.779 10 0 59199 72900.00000 0 -10984791.273 22666998.412 4148467.450 10 0 59199 73800.00000 0 -10619653.654 22056671.816 7256695.611 10 0 59199 74700.00000 0 -10199728.994 21061846.133 10224368.802 10 0 59199 75600.00000 0 -9781240.530 19694270.790 12994118.735 10 0 59199 76500.00000 0 -9417983.291 17978498.289 15512459.342 10 0 59199 77400.00000 0 -9158886.640 15951023.852 17730801.895 10 0 59199 78300.00000 0 -9045796.877 13658944.969 19606373.333 10 0 59199 79200.00000 0 -9111571.637 11158196.591 21103022.035 10 0 59199 80100.00000 0 -9378564.584 8511434.618 22191897.414 10 0 59199 81000.00000 0 -9857562.686 5785654.137 22851992.135 10 0 59199 81900.00000 0 -10547219.833 3049639.082 23070538.055 10 0 59199 82800.00000 0 -11434010.310 371346.714 22843249.273 10 0 59199 83700.00000 0 -12492704.652 -2184667.446 22174408.176 10 0 59199 84600.00000 0 -13687349.295 -4559680.144 21076792.590 10 0 59199 85500.00000 0 -14972710.908 -6702987.860 19571444.678 10 0 59200 0.00000 0 -16296127.363 -8573762.380 17687284.692 10 0 59200 900.00000 0 -17599690.395 -10142498.461 15460574.821 10 0 59200 1800.00000 0 -18822670.863 -11391994.357 12934242.167 10 0 59200 2700.00000 0 -19904086.859 -12317823.120 10157070.606 10 0 59200 3600.00000 0 -20785308.500 -12928275.768 7182775.851 10 0 59200 4500.00000 0 -21412590.173 -13243776.494 4068979.474 10 0 59200 5400.00000 0 -21739423.546 -13295793.868 876100.539 10 0 59200 6300.00000 0 -21728611.019 -13125292.587 -2333814.486 10 0 59200 7200.00000 0 -21353970.240 -12780790.226 -5498300.792 10 0 59200 8100.00000 0 -20601595.342 -12316100.722 -8555699.348 10 0 59200 9000.00000 0 -19470618.847 -11787860.232 -11446371.189 10 0 59200 9900.00000 0 -17973439.289 -11252940.850 -14113876.720 10 0 59200 10800.00000 0 -16135402.300 -10765863.117 -16506095.352 10 0 59200 11700.00000 0 -13993946.389 -10376318.641 -18576261.872 10 0 59200 12600.00000 0 -11597247.747 -10126909.811 -20283897.483 10 0 59200 13500.00000 0 -9002420.071 -10051204.358 -21595615.875 10 0 59200 14400.00000 0 -6273344.579 -10172189.020 -22485787.322 10 0 59200 15300.00000 0 -3478221.437 -10501189.299 -22937046.931 10 0 59200 16200.00000 0 -686945.711 -11037302.098 -22940636.624 10 0 59200 17100.00000 0 2031581.709 -11767365.814 -22496574.075 10 0 59200 18000.00000 0 4612094.917 -12666469.138 -21613645.479 10 0 59200 18900.00000 0 6995444.776 -13698976.598 -20309222.897 10 0 59200 19800.00000 0 9130817.904 -14820026.611 -18608910.507 10 0 59200 20700.00000 0 10977600.545 -15977437.539 -16546027.768 10 0 59200 21600.00000 0 12506810.571 -17113939.901 -14160940.790 10 0 59200 22500.00000 0 13702039.489 -18169639.126 -11500256.280 10 0 59200 23400.00000 0 14559867.340 -19084603.647 -8615895.273 10 0 59200 24300.00000 0 15089735.991 -19801468.183 -5564066.066 10 0 59200 25200.00000 0 15313289.287 -20267941.884 -2404157.683 10 0 59200 26100.00000 0 15263210.986 -20439115.478 802423.406 10 0 59200 27000.00000 0 14981612.383 -20279470.664 3993449.839 10 0 59200 27900.00000 0 14518040.103 -19764507.969 7107079.495 10 0 59200 28800.00000 0 13927189.909 -18881925.803 10083047.638 10 0 59200 29700.00000 0 13266424.055 -17632302.514 12863822.446 10 0 59200 30600.00000 0 12593197.114 -16029254.112 15395702.462 10 0 59200 31500.00000 0 11962498.265 -14099062.137 17629836.031 10 0 59200 32400.00000 0 11424416.563 -11879787.816 19523144.778 10 0 59200 33300.00000 0 11021930.024 -9419909.451 21039135.217 10 0 59200 34200.00000 0 10789009.590 -6776539.182 22148584.812 10 0 59200 35100.00000 0 10749115.847 -4013291.874 22830091.126 10 0 59200 36000.00000 0 10914150.111 -1197892.606 23070475.062 10 0 59200 36900.00000 0 11283902.939 1600380.398 22865031.517 10 0 59200 37800.00000 0 11846023.015 4313314.187 22217623.139 10 0 59200 38700.00000 0 12576508.256 6876335.160 21140615.263 10 0 59200 39600.00000 0 13440699.855 9230934.601 19654652.503 10 0 59200 40500.00000 0 14394739.475 11326847.254 17788279.952 10 0 59200 41400.00000 0 15387430.739 13123894.073 15577414.409 10 0 59200 42300.00000 0 16362429.215 14593413.240 13064673.755 10 0 59200 43200.00000 0 17260671.057 15719220.084 10298575.183 10 0 59200 44100.00000 0 18022939.842 16498055.296 7332615.585 10 0 59200 45000.00000 0 18592464.502 16939501.691 4224250.171 10 0 59200 45900.00000 0 18917439.011 17065371.792 1033787.696 10 0 59200 46800.00000 0 18953356.804 16908590.663 -2176777.070 10 0 59200 47700.00000 0 18665059.796 16511619.905 -5344971.022 10 0 59200 48600.00000 0 18028413.222 15924488.570 -8409066.639 10 0 59200 49500.00000 0 17031532.788 15202513.934 -11309297.350 10 0 59200 50400.00000 0 15675509.391 14403808.841 -13989039.142 10 0 59200 51300.00000 0 13974597.898 13586682.014 -16395933.721 10 0 59200 52200.00000 0 11955859.364 12807042.733 -18482929.547 10 0 59200 53100.00000 0 9658269.697 12115921.459 -20209218.580 10 0 59200 54000.00000 0 7131330.650 11557213.132 -21541048.958 10 0 59200 54900.00000 0 4433240.643 11165740.394 -22452396.467 10 0 59200 55800.00000 0 1628701.875 10965720.113 -22925480.740 10 0 59200 56700.00000 0 -1213544.168 10969699.097 -22951115.600 10 0 59200 57600.00000 0 -4023349.163 11178004.522 -22528886.585 10 0 59200 58500.00000 0 -6731847.498 11578732.222 -21667152.368 10 0 59200 59400.00000 0 -9274089.925 12148272.787 -20382870.621 10 0 59200 60300.00000 0 -11591510.998 12852352.145 -18701252.508 10 0 59200 61200.00000 0 -13634127.168 13647541.238 -16655253.610 10 0 59200 62100.00000 0 -15362374.403 14483169.350 -14284912.450 10 0 59200 63000.00000 0 -16748509.766 15303558.542 -11636550.817 10 0 59200 63900.00000 0 -17777520.121 16050483.141 -8761852.963 10 0 59200 64800.00000 0 -18447502.432 16665749.028 -5716842.998 10 0 59200 65700.00000 0 -18769502.538 17093782.802 -2560781.699 10 0 59200 66600.00000 0 -18766822.234 17284120.958 644994.575 10 0 59200 67500.00000 0 -18473826.838 17193694.051 3838269.418 10 0 59200 68400.00000 0 -17934306.164 16788810.002 6957152.669 10 0 59200 69300.00000 0 -17199460.110 16046753.870 9941273.844 10 0 59200 70200.00000 0 -16325595.235 14956937.935 12732940.032 10 0 59200 71100.00000 0 -15371630.000 13521554.947 15278236.724 10 0 59200 72000.00000 0 -14396513.582 11755708.216 17528051.534 10 0 59200 72900.00000 0 -13456665.925 9687013.802 19439002.770 10 0 59200 73800.00000 0 -12603545.104 7354691.549 20974256.866 10 0 59200 74700.00000 0 -11881442.274 4808182.435 22104220.841 10 0 59200 75600.00000 0 -11325594.643 2105348.610 22807098.357 10 0 59200 76500.00000 0 -10960693.675 -689670.977 23069300.255 10 0 59200 77400.00000 0 -10799849.521 -3508862.628 22885702.746 10 0 59200 78300.00000 0 -10844054.108 -6282900.813 22259748.900 10 0 59200 79200.00000 0 -11082165.179 -8943768.603 21203391.323 10 0 59200 80100.00000 0 -11491412.486 -11427329.681 19736876.444 10 0 59200 81000.00000 0 -12038406.149 -13675747.692 17888373.201 10 0 59200 81900.00000 0 -12680606.637 -15639654.363 15693451.449 10 0 59200 82800.00000 0 -13368196.689 -17279977.340 13194418.084 10 0 59200 83700.00000 0 -14046278.538 -18569352.082 10439521.429 10 0 59200 84600.00000 0 -14657305.757 -19493058.607 7482037.077 10 0 59200 85500.00000 0 -15143648.503 -20049442.969 4379251.136 99